Trinidad, Colorado, United States (81082)
Lat: 37.17N, Lon: 104.5W
Wx Zone: COZ088
Local Info
Past Weather Observations for Monday, November 24, 2014

NOTE: This archive is for the closest National Weather Service station to Trinidad. Information may differ from the station used for current weather conditions.

Click here for Long-term Archive

Time Weather Temperature Dewpoint Humidity Pressure Winds Precip Visibility
23:54
Clear
19°F / -7°C 14°F / -10°C 79% 30.27 in
(1025 mb)
SSW 11.5 mph
(SSW 19 kph)
- 10SM
22:54
Clear
21°F / -6°C 16°F / -9°C 80% 30.27 in
(1025 mb)
SSW 10.4 mph
(SSW 17 kph)
- 10SM
21:54
Overcast
27°F / -3°C 19°F / -7°C 74% 30.3 in
(1026 mb)
NW 5.8 mph
(NW 9 kph)
- 10SM
20:54
Overcast
28°F / -2°C 19°F / -7°C 69% 30.27 in
(1025 mb)
NW 6.9 mph
(NW 11 kph)
- 10SM
19:54
Overcast
28°F / -2°C 19°F / -7°C 69% 30.24 in
(1024 mb)
WNW 5.8 mph
(WNW 9 kph)
- 10SM
18:54
Partly Cloudy
30°F / -1°C 19°F / -7°C 64% 30.18 in
(1022 mb)
NE 10.4 mph
(NE 17 kph)
- 10SM
17:54
Clear
30°F / -1°C 18°F / -8°C 59% 30.15 in
(1021 mb)
NNE 9.2 mph
(NNE 15 kph)
- 10SM
16:54
Overcast
34°F / 1°C 18°F / -8°C 51% 30.09 in
(1019 mb)
N 15 mph
(N 24 kph)
- 10SM
15:54
Overcast
36°F / 2°C 16°F / -9°C 44% 30.06 in
(1018 mb)
NW 10.4 mph
(NW 17 kph)
- 10SM
14:54
Mostly Cloudy
36°F / 2°C 16°F / -9°C 44% 30.04 in
(1017 mb)
NW 6.9 mph
(NW 11 kph)
- 10SM
13:54
Partly Cloudy
37°F / 3°C 16°F / -9°C 41% 30.01 in
(1016 mb)
NW 12.7 mph
(NW 20 kph)
- 10SM
12:54
Partly Cloudy
37°F / 3°C 16°F / -9°C 41% 29.98 in
(1015 mb)
NW 17.3 mph
(NW 28 kph)
- 10SM
11:54
Mostly Cloudy
36°F / 2°C 18°F / -8°C 48% 29.98 in
(1015 mb)
NW 10.4 mph
(NW 17 kph)
- 10SM
10:54
Overcast
34°F / 1°C 18°F / -8°C 51% 29.98 in
(1015 mb)
W 11.5 mph
(W 19 kph)
- 10SM
09:54
Mostly Cloudy
28°F / -2°C 16°F / -9°C 59% 29.98 in
(1015 mb)
SSW 11.5 mph
(SSW 19 kph)
- 10SM
08:54
Partly Cloudy
25°F / -4°C 14°F / -10°C 63% 29.98 in
(1015 mb)
SSW 12.7 mph
(SSW 20 kph)
- 10SM
07:54
Clear
21°F / -6°C 12°F / -11°C 68% 29.98 in
(1015 mb)
SSW 12.7 mph
(SSW 20 kph)
- 10SM
06:54
Clear
18°F / -8°C 10°F / -12°C 73% 29.98 in
(1015 mb)
SSW 11.5 mph
(SSW 19 kph)
- 10SM
05:54
Clear
16°F / -9°C 9°F / -13°C 73% 29.95 in
(1014 mb)
W 12.7 mph
(W 20 kph)
- 10SM
04:54
Clear
16°F / -9°C 7°F / -14°C 67% 29.95 in
(1014 mb)
SSW 17.3 mph
(SSW 28 kph)
- 10SM
03:54
Clear
18°F / -8°C 9°F / -13°C 68% 29.95 in
(1014 mb)
SSW 18.4 mph
(SSW 30 kph)
- 10SM
02:54
Clear
18°F / -8°C 10°F / -12°C 73% 29.95 in
(1014 mb)
SSW 15 mph
(SSW 24 kph)
- 10SM
01:54
Clear
19°F / -7°C 12°F / -11°C 73% 29.95 in
(1014 mb)
W 10.4 mph
(W 17 kph)
- 10SM
00:54
Clear
19°F / -7°C 16°F / -9°C 86% 29.95 in
(1014 mb)
W 9.2 mph
(W 15 kph)
- 10SM
Time Weather Temperature Dewpoint Humidity Pressure Winds Precip Visibility


Weather for websites

WeatherForYou.com, LLC is not responsible for any damages or problems caused by this service. Current weather conditions are obtained from the closest station including government and personal stations which may have varying degrees of accuracy. Weather forecasts are derived from the NOAA NDFD. Like all things, this site belongs to Jesus Christ... He just trusts me to maintain it. If you have any questions or comments email webmaster@weatherforyou.com

Copyright © 2014, WeatherForYou.com LLC. All rights reserved.